Wind_Speed
9 8 7 7 7 7 7 7 6 5 5 6 7 9 10 12 14 16 17 18 19 21
11 11 11 10 10 10 9 9 8 7 7 8 8 9 10 12 13 15 16 18 20 22
14 15 14 13 13 13 13 12 11 11 10 10 11 11 12 13 15 16 17 19 21 23
18 18 17 17 17 16 16 16 16 15 14 14 14 14 15 16 18 19 20 21 22 23
21 21 20 20 20 20 20 20 20 19 19 18 18 19 19 20 21 23 24 25 26 27
23 22 22 23 22 23 23 23 23 24 23 23 23 23 24 25 26 27 28 29 30 31
23 23 25 25 25 25 26 26 26 26 26 27 27 27 28 30 30 31 32 33 34 35
25 26 26 26 26 27 27 27 28 28 29 29 30 30 32 34 36 37 38 37 37 38
25 25 25 26 26 27 27 28 28 29 31 32 32 33 34 36 38 39 39 40 40 40
20 21 22 24 25 26 27 28 29 30 31 33 34 35 36 37 37 38 40 42 42 43
16 18 21 22 24 26 28 29 31 32 33 35 35 35 36 37 38 41 42 42 42 44
18 20 22 24 26 27 29 30 31 32 32 34 35 33 34 34 37 39 40 41 41 41
21 22 24 25 26 27 28 29 29 29 29 29 31 30 31 31 31 35 38 39 39 36
20 22 23 24 24 24 24 24 25 27 28 29 30 32 31 29 28 31 35 37 40 40
Wind_Direction
252 258 259 261 261 258 261 267 278 294 314 334 348 355 357 358 358 359 359 357 354 350
256 263 262 260 261 264 264 268 274 282 298 311 321 330 338 342 342 345 344 344 342 341
262 264 265 267 267 266 268 271 275 283 291 299 306 314 319 324 327 329 330 330 332 332
262 264 268 269 267 267 268 271 274 278 282 288 294 301 307 312 316 318 320 320 320 322
263 266 267 269 268 268 267 267 270 273 277 282 288 293 299 303 307 310 311 313 313 314
262 265 267 266 267 268 268 268 271 274 276 280 284 288 293 296 299 301 303 305 305 307
268 266 265 268 270 271 273 273 274 276 278 280 283 287 290 293 295 296 297 298 300 301
264 265 266 269 272 274 277 278 279 281 281 282 284 287 289 291 293 295 295 295 296 297
262 265 267 270 272 275 278 281 282 284 285 286 287 288 289 291 293 292 292 293 293 293
268 271 272 275 278 281 283 285 286 286 287 287 288 290 290 291 291 289 289 290 290 290
279 278 280 282 284 285 286 288 289 291 292 292 292 293 292 292 290 288 288 288 288 286
289 288 288 289 289 290 292 293 294 295 295 295 295 297 296 295 292 290 289 288 286 286
294 294 295 295 296 298 299 299 300 301 302 304 305 306 302 299 297 295 295 294 293 292
301 299 300 300 301 301 302 303 305 305 306 306 308 308 307 304 297 294 298 300 298 296
Height
1559 1558 1558 1558 1558 1558 1558 1559 1559 1558 1557 1556 1554 1552 1551 1549 1547 1546 1544 1543 1541 1539
1556 1555 1555 1554 1554 1555 1555 1556 1556 1556 1555 1554 1552 1551 1549 1548 1546 1544 1543 1541 1539 1536
1552 1553 1552 1552 1552 1552 1553 1553 1553 1553 1552 1551 1550 1548 1547 1545 1543 1542 1540 1538 1536 1533
1549 1549 1549 1549 1549 1549 1549 1549 1549 1549 1548 1547 1546 1545 1543 1541 1540 1538 1536 1535 1533 1530
1545 1545 1545 1545 1545 1545 1545 1545 1544 1544 1543 1542 1540 1539 1538 1536 1535 1533 1532 1530 1528 1526
1541 1541 1541 1540 1539 1540 1540 1540 1538 1537 1537 1536 1534 1533 1532 1530 1528 1527 1525 1524 1522 1519
1535 1535 1535 1534 1534 1533 1533 1533 1533 1532 1531 1529 1528 1527 1525 1523 1521 1519 1518 1516 1514 1512
1528 1528 1528 1528 1527 1527 1526 1526 1525 1524 1523 1522 1521 1520 1517 1515 1512 1510 1508 1507 1506 1504
1521 1521 1521 1521 1521 1520 1520 1518 1518 1516 1514 1514 1512 1511 1509 1506 1503 1500 1498 1496 1496 1494
1516 1515 1515 1515 1514 1513 1512 1510 1509 1508 1506 1505 1504 1502 1499 1497 1493 1489 1488 1486 1485 1482
1512 1511 1510 1509 1508 1506 1504 1502 1500 1499 1497 1494 1494 1492 1489 1486 1482 1478 1476 1475 1473 1470
1506 1505 1504 1502 1501 1498 1496 1494 1491 1489 1487 1485 1483 1481 1478 1475 1471 1466 1464 1462 1460 1457
1500 1498 1496 1494 1492 1490 1487 1484 1482 1480 1478 1476 1473 1471 1468 1465 1461 1455 1451 1449 1446 1445
1493 1491 1489 1486 1484 1482 1480 1477 1475 1472 1470 1468 1466 1461 1459 1456 1453 1449 1444 1439 1436 1433